Temp
23 23 23 23 23 23 23 23 22 22 22 22 22 22 21 21 20 20 20 20 20 21 21 21 22 22 22 22 22 22 22 22 22 21 21 21 21 20 20 20 20 20 20 20 19 19 19 19 19 19 19 19 19 19 19 19 19 19 19 19 19 19 19 19 20 20 20 20 19 19 19 19 19 19
22 22 22 22 22 22 22 22 22 22 22 22 22 22 21 21 21 20 20 20 20 21 21 21 21 21 22 22 22 22 22 22 22 22 22 22 21 21 21 21 20 20 20 19 19 19 19 19 19 19 19 19 19 19 19 19 19 19 19 19 19 19 19 19 19 19 19 19 19 19 19 19 19 19
22 22 22 22 22 22 22 22 22 22 22 22 22 22 21 21 21 20 20 19 20 21 21 21 21 21 21 21 21 21 21 21 21 21 21 22 22 22 21 21 21 21 20 20 20 19 19 19 19 19 19 19 19 19 19 19 19 19 19 19 19 19 19 19 19 19 19 18 18 19 19 19 19 19
22 22 22 22 22 22 22 22 22 22 22 22 22 21 21 21 21 21 20 19 20 21 21 21 21 21 21 21 21 21 21 21 21 21 21 21 21 21 21 21 21 21 21 20 20 20 20 20 19 19 19 19 19 19 19 19 19 19 19 19 19 19 19 19 19 19 19 18 18 18 18 19 19 19
22 22 22 22 22 22 22 22 22 22 22 22 22 21 21 21 21 21 21 20 20 20 21 21 21 21 21 21 21 21 21 21 21 21 21 21 21 21 21 21 21 21 21 21 20 20 20 20 20 20 19 19 19 19 19 19 19 19 19 19 19 19 19 19 19 19 19 19 18 18 18 19 19 19
22 22 22 22 22 22 22 22 22 22 22 22 22 21 21 21 21 21 21 20 20 20 21 21 21 21 21 21 21 21 21 21 21 21 21 21 21 20 20 20 20 20 20 20 20 20 20 20 20 20 20 20 20 20 19 19 19 19 19 19 19 19 19 19 19 19 19 19 19 19 19 19 19 19
22 22 22 22 22 22 22 22 22 22 22 22 22 21 21 21 21 21 21 21 20 20 20 21 21 21 21 21 21 21 21 21 21 20 20 20 20 20 20 20 20 20 20 20 20 20 20 20 20 20 20 20 20 20 20 20 20 19 19 19 19 19 19 19 19 19 19 19 19 19 19 19 19 19
22 22 22 22 22 22 22 22 22 22 22 22 22 22 21 21 21 21 21 21 21 20 20 20 21 21 21 21 21 21 21 21 21 21 20 20 20 20 20 20 20 20 20 20 20 20 20 20 20 20 20 20 20 20 20 20 20 20 19 19 19 19 19 19 19 19 19 19 19 19 19 19 19 19
22 22 22 22 22 22 22 22 22 22 22 22 22 22 21 21 21 21 21 21 21 20 20 20 20 20 20 21 21 21 21 21 21 20 20 20 20 20 20 20 20 19 20 20 20 20 20 20 20 20 20 20 20 20 20 20 20 20 20 20 19 19 19 19 19 19 19 19 19 19 19 19 19 19
22 22 22 22 22 22 22 22 22 22 22 22 22 22 21 21 21 21 21 20 20 20 20 20 20 20 20 20 20 20 20 20 20 20 20 20 20 20 20 20 20 20 20 20 20 20 20 20 20 20 20 20 19 19 19 20 20 20 20 20 19 19 19 19 19 19 19 19 19 19 19 19 19 19
22 22 22 22 22 22 22 22 22 22 22 22 21 21 21 21 21 21 20 20 20 20 20 20 20 20 20 20 20 20 20 20 20 20 19 19 20 20 19 20 20 20 19 19 19 19 19 19 19 19 19 19 19 19 19 19 19 19 19 19 19 19 19 19 19 19 19 19 19 19 19 19 19 19
22 22 22 22 22 22 22 22 22 22 22 22 22 21 21 21 21 20 20 20 20 20 19 19 19 19 19 19 19 19 19 19 19 20 19 19 19 20 19 19 19 19 19 19 19 19 19 19 19 19 19 19 19 19 19 19 19 19 19 19 19 19 19 19 19 18 18 19 19 19 19 19 19 19
22 22 21 22 21 21 22 22 22 22 22 22 21 21 21 21 21 20 20 20 20 19 19 19 19 18 18 18 18 18 19 19 19 19 19 19 19 19 19 19 19 19 18 18 18 18 18 18 18 18 18 18 18 18 18 18 18 18 18 18 18 18 18 18 18 18 18 18 19 19 19 19 19 19
21 21 21 21 21 21 22 22 22 22 21 21 21 21 21 21 20 20 20 20 20 19 18 18 18 18 18 18 18 18 19 19 19 19 19 18 18 18 18 18 18 18 18 18 18 18 18 18 18 18 17 17 17 17 18 18 18 18 18 18 18 18 18 18 18 18 18 18 18 18 18 18 19 19
21 21 21 21 21 21 21 21 21 21 21 21 21 21 21 20 20 20 20 20 20 19 18 18 18 17 17 18 18 18 18 18 18 18 18 18 17 17 17 16 17 18 17 17 17 17 17 17 17 16 17 17 17 17 17 18 18 18 18 18 18 18 18 18 18 18 18 18 18 18 18 19 19 19
21 21 21 21 21 21 21 21 21 21 21 21 21 21 21 21 21 20 20 20 19 19 18 18 17 17 17 17 17 17 17 17 18 17 17 17 17 16 16 16 16 17 17 17 16 16 16 16 16 16 16 17 17 17 18 18 18 18 18 18 18 18 18 18 18 18 18 18 18 18 18 18 18 18
21 21 21 21 21 21 21 21 21 21 21 21 21 21 21 20 20 20 19 19 19 19 18 18 17 17 17 17 17 18 17 17 17 17 17 17 16 16 16 16 16 17 17 16 15 15 16 16 15 16 16 17 17 18 18 18 18 18 18 18 18 18 18 18 18 18 18 18 18 18 18 18 18 18
21 21 21 21 21 20 20 20 20 20 20 21 21 21 20 20 20 19 19 19 19 18 18 17 17 18 17 17 18 18 17 17 16 16 16 16 16 16 16 16 16 16 17 16 15 14 15 16 16 16 16 17 17 18 18 18 18 18 18 17 17 17 18 18 18 18 18 17 17 17 17 17 17 17
21 21 21 21 20 20 20 20 20 20 20 21 20 20 19 19 19 19 18 18 18 18 18 17 17 18 18 17 17 17 17 16 16 16 16 16 16 16 16 16 16 16 17 17 15 14 15 16 16 16 17 17 17 17 17 17 17 17 17 17 17 17 17 17 17 17 17 17 17 17 17 17 17 17
21 21 20 20 20 20 20 20 20 20 20 20 20 19 19 19 18 18 18 18 18 17 17 17 17 17 17 17 16 16 16 16 16 16 16 16 16 15 15 15 15 16 17 17 15 15 15 16 16 16 16 16 16 17 17 17 17 17 17 17 17 17 16 16 16 16 16 16 16 16 16 16 16 16
21 20 20 20 20 20 20 20 20 20 20 20 19 19 18 18 18 18 18 17 17 17 17 17 17 16 16 16 16 16 16 16 16 16 16 16 16 15 14 14 14 15 16 16 16 15 15 16 15 15 15 15 16 16 16 16 16 16 16 16 16 16 16 16 16 16 16 16 15 15 15 15 15 15
20 20 20 20 20 20 20 20 20 20 19 19 19 18 18 17 17 17 17 16 17 17 17 17 17 17 17 17 17 17 16 16 16 16 16 16 16 14 14 14 14 15 15 15 15 15 15 15 15 15 15 15 15 15 15 15 16 15 15 15 15 15 16 15 15 15 15 15 15 15 15 14 14 14
20 20 20 20 19 19 19 19 19 19 19 19 18 18 17 17 16 16 16 16 16 16 17 17 16 16 17 17 17 16 16 16 16 16 16 16 15 14 14 14 14 14 14 15 15 15 15 14 14 14 14 14 14 15 15 15 15 15 15 15 15 15 15 15 15 15 15 15 14 14 14 14 14 14
20 20 20 19 19 19 19 19 19 19 18 18 18 17 17 16 16 16 16 16 16 15 15 16 16 16 16 16 16 16 16 16 16 16 16 15 15 14 14 14 14 14 14 15 15 14 14 14 14 14 14 13 13 14 14 15 15 15 15 14 15 15 15 14 14 14 14 14 14 14 14 14 14 14
20 20 19 19 19 19 19 18 18 18 18 17 17 17 16 16 16 16 16 16 15 15 15 15 16 16 16 16 15 16 16 16 16 15 15 15 15 14 14 14 14 14 14 15 14 14 14 14 14 14 14 13 13 14 14 14 14 14 14 14 14 14 14 14 14 14 14 14 14 13 13 13 13 13
20 20 20 19 19 19 18 18 18 18 17 17 17 17 17 16 16 16 16 15 15 15 15 15 16 15 15 15 15 15 16 16 15 15 15 15 15 15 15 15 14 14 14 14 15 14 14 14 14 14 14 13 13 13 13 14 14 14 14 14 14 14 14 14 14 14 14 13 13 13 13 13 13 13
20 19 19 19 19 19 18 18 18 18 18 18 17 17 17 16 16 16 16 15 15 15 15 15 15 15 15 15 15 15 15 15 15 15 15 15 15 15 15 15 15 14 14 14 15 14 14 14 14 14 14 13 13 13 13 13 13 14 14 14 14 14 14 14 14 14 13 13 13 13 13 12 13 13
19 19 19 19 19 19 18 18 18 18 18 17 17 17 17 16 16 16 16 15 15 15 15 15 15 15 15 15 15 15 15 15 15 15 15 15 15 15 15 15 15 15 15 15 15 15 14 14 14 14 14 14 13 13 13 13 13 13 13 14 14 14 14 14 13 13 13 13 13 12 12 12 12 12
19 19 19 19 19 19 18 18 18 17 17 17 17 17 16 16 16 16 16 15 15 15 15 15 15 15 15 15 15 15 15 15 15 15 14 15 15 15 15 15 15 15 15 15 15 15 15 15 15 15 15 15 14 13 13 13 13 13 13 13 13 13 14 14 13 13 13 12 12 12 12 12 12 12
19 19 19 19 19 18 18 18 17 17 17 17 17 17 16 17 17 16 16 16 15 15 15 15 15 15 15 15 15 14 15 15 15 15 15 15 15 15 15 15 15 15 15 15 15 15 15 15 15 15 15 15 15 14 14 13 13 13 13 13 13 13 13 13 13 13 12 12 12 12 12 12 12 12
19 19 19 19 18 18 17 17 17 16 17 17 17 17 17 17 17 16 16 16 15 15 15 15 15 15 15 15 14 15 15 15 15 15 15 15 15 15 15 15 15 15 15 15 15 15 15 15 15 15 15 15 15 15 14 14 13 13 13 13 13 13 13 13 13 12 12 12 12 11 11 11 12 12
18 18 18 18 18 17 17 16 16 16 17 17 17 17 17 17 16 16 16 15 15 15 14 14 14 15 15 14 15 15 15 15 15 15 15 15 15 15 15 14 14 15 15 15 15 16 15 15 16 15 15 15 15 15 14 14 13 13 12 13 13 13 13 13 12 12 12 12 11 11 11 11 11 12
18 18 18 17 17 17 16 16 16 17 17 17 17 17 17 17 16 16 16 15 15 15 14 14 14 15 15 14 15 15 14 15 15 15 15 15 15 15 15 14 14 14 14 15 15 15 15 16 15 15 15 15 15 14 14 13 13 13 13 13 13 13 12 12 12 12 12 11 11 11 11 11 11 11
18 17 17 17 17 17 17 17 17 17 17 17 17 17 17 17 16 16 15 15 15 15 15 15 15 15 15 14 15 15 15 15 15 15 15 15 15 15 15 14 14 15 14 15 15 15 15 15 15 15 15 15 15 14 13 13 13 13 13 13 12 12 12 12 12 11 11 11 11 10 11 11 11 11
17 17 17 17 17 17 17 17 17 17 17 17 17 17 17 17 16 15 15 15 15 15 15 15 15 15 15 15 15 15 14 14 15 15 15 15 15 15 15 14 14 14 15 15 15 15 15 15 15 15 14 14 14 14 14 13 13 13 13 12 12 12 12 12 11 11 11 11 10 10 10 10 10 10
17 17 17 17 17 17 16 16 17 17 17 17 17 17 17 17 16 15 15 16 15 15 15 15 15 15 15 14 14 14 14 14 15 15 15 15 15 15 15 14 14 15 15 15 15 15 15 15 15 14 13 12 12 12 13 13 13 13 12 12 12 12 12 11 11 11 10 10 10 10 10 9 9 10
17 17 17 17 17 17 17 17 17 17 17 17 17 17 17 16 16 16 16 15 15 15 15 15 15 15 14 14 14 14 14 15 15 15 15 15 15 15 14 14 15 15 15 15 15 15 15 15 15 14 13 12 12 12 12 13 13 13 12 12 11 12 11 11 10 10 10 10 10 9 9 9 9 9
17 18 18 18 18 17 17 17 17 17 17 17 17 17 17 16 16 16 15 15 15 15 15 15 14 14 14 14 14 14 14 14 14 14 15 15 15 14 14 14 14 14 14 15 15 15 15 15 15 14 13 12 12 12 12 12 12 13 13 12 12 11 11 10 10 9 9 10 9 9 8 8 8 9
18 18 18 18 18 18 18 17 17 17 17 17 17 17 16 16 16 16 15 15 15 15 14 14 14 14 14 14 14 14 14 14 14 14 15 14 14 14 14 14 14 14 14 14 14 15 15 15 15 15 14 13 13 13 12 11 11 12 13 12 12 11 10 10 9 9 9 9 8 8 8 8 8 9
18 18 18 18 17 17 17 17 17 17 17 16 17 16 16 16 16 15 15 15 15 14 14 14 14 14 14 14 14 14 14 14 14 14 14 14 14 14 14 14 14 14 14 14 14 14 15 15 15 15 15 14 14 14 13 12 12 12 13 12 11 11 10 9 9 9 9 8 8 7 8 8 8 8
18 18 18 17 17 17 17 17 17 17 16 16 16 16 16 16 15 15 15 15 14 14 14 14 14 14 14 14 14 14 14 14 14 14 14 14 14 14 14 14 14 14 14 13 14 14 14 15 15 15 15 15 14 13 13 12 12 12 12 12 11 10 10 9 9 9 8 8 7 7 7 7 7 8
18 18 18 17 17 17 17 17 17 16 16 16 16 16 16 16 15 15 15 15 14 14 14 14 14 14 14 14 14 14 14 14 14 14 14 14 14 14 14 14 14 14 14 13 14 14 15 15 15 15 15 15 14 13 12 11 11 11 12 11 10 10 9 9 9 9 8 8 7 7 6 7 7 7
18 18 17 17 17 17 17 17 16 16 16 16 16 16 16 15 15 15 14 14 14 14 14 14 14 14 14 14 14 14 14 14 13 13 14 13 13 14 14 14 14 14 14 14 14 15 15 15 15 15 15 14 13 12 12 11 11 12 11 10 10 9 9 9 9 8 8 8 7 7 6 6 6 7
18 18 17 17 17 17 17 16 16 16 16 16 16 16 15 15 15 15 14 14 14 14 14 14 14 14 14 14 14 14 14 13 13 13 13 13 14 14 14 14 14 14 14 14 14 14 15 15 15 15 14 13 13 13 12 12 12 11 10 10 9 9 8 8 8 8 8 8 7 7 6 6 6 6
18 17 17 17 17 17 17 17 16 16 16 16 16 16 15 15 15 15 14 14 14 14 14 14 14 14 14 14 13 13 13 13 13 13 13 13 14 14 14 14 14 14 14 14 14 14 14 15 15 15 14 13 13 13 12 12 12 11 10 9 9 8 8 8 8 7 7 7 7 6 6 6 6 6
Height
836 837 837 838 839 840 841 842 842 843 843 843 844 844 844 845 847 848 848 847 845 845 845 845 845 844 844 845 845 845 845 844 844 843 842 842 841 841 840 840 840 839 839 839 840 840 840 840 840 840 840 839 839 839 838 838 838 838 838 838 837 837 837 836 836 836 835 835 834 834 834 833 833 833
835 835 836 837 838 839 840 840 841 841 842 842 842 843 844 844 845 846 847 847 844 843 844 844 844 844 844 844 844 844 844 843 843 842 841 840 840 839 838 837 837 836 836 836 836 837 837 837 837 837 837 837 836 836 836 836 835 835 835 835 835 834 834 834 833 833 833 833 832 832 831 831 831 830
834 834 835 836 836 837 838 839 840 840 841 841 841 842 843 844 844 844 845 845 843 842 842 842 843 843 843 843 843 843 843 842 842 841 840 839 839 838 837 836 835 834 834 834 833 834 834 834 834 834 834 834 834 834 833 833 833 833 832 832 832 832 831 831 831 831 830 830 829 829 828 828 828 828
833 833 834 834 834 836 836 837 838 839 839 840 840 841 842 842 843 843 843 844 842 841 841 841 841 841 842 842 842 841 841 840 840 839 838 837 837 836 835 835 834 833 832 831 831 831 831 831 831 831 831 831 831 831 831 831 830 830 830 829 829 829 829 829 828 828 827 826 826 826 825 825 825 825
832 832 832 833 833 834 835 835 836 837 838 839 839 840 840 841 841 842 842 842 841 840 839 839 839 840 840 839 839 839 838 837 837 836 836 835 835 834 833 833 832 832 831 830 830 830 829 829 829 828 828 828 828 828 828 828 827 827 827 827 826 826 826 825 825 824 824 823 823 822 822 822 822 822
831 831 831 832 832 832 833 834 835 836 836 837 838 838 839 839 840 840 841 841 840 839 838 838 838 838 838 837 836 835 835 835 834 834 833 833 833 832 831 830 829 829 829 828 828 828 828 827 826 826 825 825 824 824 824 824 824 824 824 823 823 823 822 821 821 821 820 820 819 819 819 819 818 818
829 830 830 830 831 831 831 832 833 834 835 836 836 837 837 838 838 839 839 839 839 838 837 836 835 835 834 833 832 832 832 831 831 830 830 830 830 830 829 828 827 827 826 826 826 826 825 825 824 823 823 822 822 821 821 820 820 820 820 820 819 819 819 818 817 817 816 816 816 815 815 815 815 815
827 828 828 829 829 830 830 830 831 831 832 833 834 835 835 836 836 836 837 837 836 836 834 834 833 833 832 831 830 830 829 828 827 827 827 827 827 826 827 826 825 825 824 824 823 823 823 822 821 821 820 819 819 818 818 817 817 816 816 815 815 815 815 814 814 813 813 812 812 812 812 811 811 811
825 825 826 827 828 828 829 829 829 829 830 831 832 832 832 833 834 834 834 834 834 834 833 832 831 831 830 829 827 827 827 826 825 824 824 824 823 823 823 823 823 822 822 821 821 821 820 820 818 818 817 816 816 815 814 814 813 813 813 812 811 811 810 810 810 810 809 809 808 808 807 807 807 806
821 823 824 825 826 827 827 827 827 827 828 829 829 830 830 831 831 831 832 832 832 832 831 830 829 829 828 826 825 824 825 824 822 821 821 821 821 820 820 820 819 819 818 818 818 818 817 817 816 815 814 813 812 811 811 810 809 809 809 808 808 807 807 806 806 806 805 805 804 803 802 802 802 801
818 819 821 822 823 824 825 825 825 825 825 826 827 828 828 829 829 829 829 830 830 830 829 828 827 825 824 824 822 822 822 822 820 819 819 818 818 818 817 816 816 815 815 815 815 815 814 813 813 811 811 810 809 808 807 807 806 805 805 804 804 803 803 802 802 801 801 800 800 799 798 798 797 797
816 816 817 819 820 821 822 823 823 823 823 823 824 825 826 827 827 827 827 827 827 827 826 825 824 823 822 821 820 820 820 819 818 818 817 816 815 815 814 813 813 812 812 811 811 811 811 810 809 808 807 806 806 805 804 803 803 802 801 801 800 800 799 798 798 797 797 796 795 795 794 794 793 793
815 815 815 815 817 818 820 821 821 821 821 822 822 824 825 825 825 825 825 825 824 824 823 822 822 822 821 819 819 819 818 817 816 816 816 814 813 813 811 811 811 810 809 808 807 807 807 806 805 804 804 803 803 802 801 800 799 798 798 797 796 796 795 794 794 793 793 792 792 791 790 790 789 788
813 814 814 814 815 816 817 818 819 819 820 820 820 821 822 823 823 823 823 822 821 821 821 820 820 819 818 817 817 817 816 816 815 814 814 813 812 811 810 808 808 807 806 805 804 804 804 803 801 801 800 799 799 798 797 796 796 795 794 793 792 791 791 790 790 789 789 789 788 787 786 785 784 784
810 811 812 813 813 814 815 816 817 817 817 818 818 818 818 819 819 819 819 818 818 818 818 817 817 816 815 815 815 815 814 814 813 812 812 811 810 809 808 806 805 804 804 802 800 800 800 799 797 796 796 795 795 794 792 792 792 791 790 789 788 788 787 786 786 785 785 785 783 782 781 780 779 778
808 809 810 811 812 813 813 814 815 815 815 815 816 816 816 816 816 815 816 816 816 816 815 814 814 813 813 812 812 813 812 812 811 810 809 809 808 807 806 804 802 802 802 800 797 795 795 794 793 792 792 791 790 789 788 788 788 787 787 786 785 785 784 783 783 782 781 780 779 777 776 775 774 773
806 807 808 810 810 811 811 812 812 813 813 813 813 814 814 814 814 814 814 814 814 813 812 811 810 810 810 810 809 810 810 809 808 807 807 806 805 804 803 802 800 800 800 797 794 791 790 791 790 788 788 788 787 786 785 785 785 784 783 783 782 782 781 780 779 778 777 776 774 772 771 769 768 767
803 805 806 807 808 809 809 809 810 810 811 811 811 812 812 812 812 812 812 812 812 811 810 809 808 807 808 808 807 807 807 806 806 805 804 804 803 802 800 799 798 797 796 795 792 789 788 788 787 785 785 785 784 783 783 782 782 781 780 780 779 778 777 776 775 774 772 771 769 767 766 765 763 762
801 802 803 804 805 806 806 806 807 808 809 809 809 809 810 810 810 810 810 810 810 809 808 807 806 805 806 806 805 805 805 804 804 803 802 802 800 799 798 796 795 794 793 792 791 788 786 786 785 783 782 782 781 781 781 780 779 778 777 776 775 774 773 771 770 769 767 765 764 762 760 759 758 757
798 799 801 801 802 803 803 804 805 806 806 806 807 807 807 808 808 808 808 808 808 807 806 805 805 804 804 804 803 803 803 803 802 801 800 799 798 797 795 793 792 791 790 790 789 786 784 785 783 781 781 780 779 778 778 777 776 775 773 772 771 770 768 767 765 763 762 760 758 757 755 753 752 750
795 796 797 798 799 800 801 802 803 804 804 804 805 806 806 806 806 806 806 806 806 805 804 803 803 803 803 802 802 802 802 801 800 799 798 797 796 795 794 792 790 789 788 787 787 785 783 783 782 779 778 777 776 775 774 773 772 771 769 768 767 765 764 762 760 759 757 755 753 751 749 748 746 744
792 793 795 796 797 798 799 801 801 802 803 803 804 804 805 805 805 805 805 804 804 803 802 802 801 801 801 801 800 800 799 799 798 797 796 795 794 793 792 790 789 788 786 786 786 784 782 781 780 777 774 772 772 772 771 769 768 766 765 764 763 761 759 757 756 754 751 749 747 745 743 741 739 736
790 792 793 794 795 796 798 799 799 800 801 801 802 803 803 803 803 803 803 803 802 801 800 800 800 799 799 799 798 797 797 797 797 796 794 793 792 791 790 789 789 788 786 786 786 783 781 779 779 777 773 770 768 768 768 766 764 763 762 760 758 756 755 753 751 749 746 744 741 739 737 735 733 730
788 790 791 792 794 795 795 796 797 798 799 800 801 801 801 801 802 802 802 801 801 800 799 799 798 797 797 796 796 796 795 795 795 794 793 792 791 790 790 789 789 788 785 785 785 783 781 779 777 777 775 771 767 765 764 762 760 759 758 756 754 752 750 749 746 744 741 738 736 734 731 729 727 724
786 788 789 790 792 793 794 795 795 796 797 798 799 799 799 800 800 800 800 800 799 799 798 797 797 796 795 795 795 794 794 793 793 792 791 791 790 789 789 788 787 786 784 783 783 782 779 778 775 773 772 770 766 764 762 759 756 755 755 753 750 748 746 744 742 738 735 732 730 728 725 723 721 719
784 785 787 788 790 791 792 792 793 794 795 796 797 797 798 798 799 798 798 798 797 797 796 796 795 794 794 794 793 793 793 792 791 790 789 789 788 787 787 786 785 783 781 781 781 779 777 775 773 771 769 767 764 762 760 756 753 751 751 749 747 744 742 740 737 733 730 727 724 722 719 717 714 711
782 784 785 787 788 789 790 790 791 792 793 794 795 796 796 797 797 797 796 796 796 795 795 794 794 793 793 793 792 792 792 791 790 789 788 787 786 785 784 783 782 781 780 778 778 777 775 773 770 769 767 765 762 760 758 754 751 748 746 744 743 740 738 736 732 728 724 722 719 715 712 710 707 704
781 782 784 785 786 787 788 789 790 791 792 793 794 794 795 795 795 795 795 795 795 794 794 793 793 792 792 792 791 791 790 789 789 788 786 785 784 783 782 781 780 779 778 776 775 774 772 770 768 766 764 763 760 758 755 751 748 745 742 740 738 736 734 731 728 724 720 717 714 711 707 703 700 697
780 781 782 783 784 785 786 787 788 789 791 792 792 793 793 793 793 793 794 793 793 793 792 792 791 791 791 791 790 789 789 788 787 786 784 783 782 781 780 778 777 776 775 774 772 771 769 767 765 763 761 760 758 755 752 748 745 742 740 737 733 730 729 728 724 721 717 714 710 706 703 699 694 691
779 780 781 782 783 784 785 786 787 788 789 790 790 791 791 791 792 792 792 792 792 791 791 790 790 790 790 790 789 788 788 787 785 784 783 781 780 779 778 776 774 773 773 771 770 768 766 764 762 760 758 757 755 752 749 746 743 739 737 734 730 725 724 723 721 717 714 710 705 700 697 693 689 685
777 778 779 780 781 782 783 785 786 787 788 788 788 789 789 790 790 790 790 790 790 789 789 790 790 790 790 789 788 787 786 785 784 783 781 780 779 777 776 774 772 770 769 768 767 766 764 762 760 758 756 754 752 749 746 744 741 737 734 732 728 723 719 717 715 712 709 705 699 694 690 686 682 679
776 777 778 779 780 781 782 783 784 785 786 786 786 786 787 787 788 788 788 789 789 788 789 789 789 789 788 787 786 785 784 783 783 782 780 779 778 776 774 772 770 767 765 764 764 763 761 760 758 756 754 752 750 747 744 741 738 734 731 730 727 722 718 715 711 707 704 700 694 688 684 680 676 673
775 776 777 778 779 779 781 782 783 783 784 783 784 784 784 785 786 786 786 787 787 787 787 788 788 788 787 786 785 783 782 782 781 780 779 778 776 774 773 771 769 766 764 762 761 760 758 757 755 754 752 750 748 746 743 739 734 731 729 727 724 720 716 713 709 704 700 696 690 683 678 674 671 667
773 774 775 776 777 778 780 781 781 782 782 782 782 782 782 783 783 783 785 785 785 785 786 786 786 786 785 784 782 781 781 781 780 779 778 776 775 773 771 769 767 765 764 762 760 758 756 754 752 750 749 748 745 742 741 737 733 729 727 725 722 717 713 709 705 701 697 693 688 680 673 668 665 662
772 773 774 775 776 778 779 779 780 781 780 780 780 780 780 780 781 782 783 784 784 784 784 784 784 783 783 782 780 780 780 779 778 777 776 775 773 771 770 768 766 764 763 761 759 756 754 752 750 748 746 744 741 737 735 734 732 729 725 723 720 715 711 706 702 698 694 690 685 678 670 663 658 656
770 771 773 774 775 776 777 778 779 779 779 779 779 778 777 778 779 780 782 782 783 783 782 782 782 782 782 781 780 779 779 778 777 776 774 773 772 770 768 767 765 763 762 760 758 755 753 750 748 747 745 743 741 737 732 731 731 729 725 721 718 714 709 704 700 695 691 686 682 677 670 663 656 651
769 770 772 773 774 775 776 776 777 777 778 778 777 776 777 777 778 780 781 781 781 781 780 780 780 780 780 780 779 779 778 777 776 774 773 772 770 769 767 766 764 762 760 758 756 754 751 749 747 746 744 742 741 739 733 729 728 728 725 721 717 713 709 703 697 692 688 684 680 675 670 664 655 649
768 769 770 771 772 773 774 775 776 776 777 777 776 776 777 777 777 778 779 779 779 779 779 779 780 779 778 778 778 778 777 776 775 773 772 771 769 768 766 765 763 761 759 757 755 753 750 748 746 744 743 741 739 737 733 728 725 724 723 721 717 712 708 703 696 690 685 681 677 673 669 663 656 649
767 768 769 770 771 772 773 773 774 775 775 776 776 776 776 776 777 777 778 778 778 778 778 778 779 778 777 777 777 777 775 774 774 772 771 770 769 767 766 764 761 759 757 755 753 751 749 747 745 743 741 739 736 734 732 728 724 721 720 720 717 712 708 703 697 691 685 679 675 669 663 659 653 648
765 766 767 768 769 770 771 772 773 774 774 775 775 775 776 776 776 776 776 776 777 777 777 777 777 776 776 775 775 775 774 773 773 771 770 769 768 766 765 762 760 758 756 754 752 750 748 746 744 741 739 736 734 732 730 727 723 720 718 717 715 712 708 703 698 692 686 680 675 667 660 654 648 643
764 765 766 767 768 769 770 771 772 772 773 774 774 774 774 774 775 775 775 775 776 776 776 776 775 775 775 775 775 774 773 772 772 771 770 768 767 765 763 761 759 757 755 753 751 748 746 744 742 740 737 734 732 730 728 725 722 719 716 715 713 710 707 703 699 694 688 682 676 669 662 655 648 642
763 763 764 766 767 768 769 770 771 771 772 772 772 773 773 773 773 773 774 774 774 774 774 774 774 774 774 774 773 773 772 771 771 770 769 767 765 764 762 760 758 756 754 752 750 747 745 743 740 737 734 732 730 729 727 725 722 719 716 713 710 708 705 702 699 695 689 684 679 672 665 658 651 644
761 762 763 764 765 766 767 768 769 770 770 771 771 771 772 772 772 772 773 773 773 773 773 772 772 773 773 772 772 771 771 771 770 769 767 766 764 763 761 759 757 755 753 751 748 746 743 740 738 735 732 730 729 728 727 724 722 719 716 713 709 706 703 700 696 693 689 686 682 677 671 665 658 651
759 760 762 763 764 765 766 767 768 769 769 770 770 770 770 771 771 772 772 772 772 771 771 771 771 771 771 771 771 770 770 770 769 767 766 765 763 762 760 758 756 754 752 749 747 744 741 739 736 734 731 730 729 728 726 724 721 719 717 714 710 705 701 697 694 690 687 684 681 676 672 668 663 658
758 759 760 761 763 764 764 766 767 767 768 768 768 769 769 770 770 770 770 770 770 770 770 770 770 770 770 770 769 769 769 768 768 766 765 764 762 760 759 757 755 753 751 748 746 743 740 738 735 733 732 731 729 728 726 724 722 720 717 714 710 707 702 698 694 690 686 683 680 676 671 666 662 657
Wind_Speed
13 10 8 9 9 8 8 7 5 4 5 5 5 6 6 7 5 2 1 2 2 5 9 7 6 8 9 11 13 13 13 13 14 16 16 17 17 17 19 20 20 20 19 17 16 17 18 19 21 22 23 23 24 23 23 24 24 24 23 23 22 22 22 22 22 21 21 21 21 21 19 18 17 16
14 12 10 9 8 8 9 7 5 4 6 6 6 6 7 8 7 5 4 2 5 7 9 8 7 9 9 8 11 13 14 15 16 17 18 19 19 20 20 20 21 20 19 19 19 19 20 20 22 23 24 24 24 24 24 23 23 24 24 24 24 24 24 23 23 22 22 22 23 22 21 19 18 18
15 14 13 12 10 9 8 6 4 4 6 8 9 8 8 9 9 9 7 3 4 7 8 9 10 10 11 11 11 13 15 17 18 18 19 20 20 20 20 20 20 20 20 20 21 21 22 22 22 22 23 23 23 23 23 22 22 22 23 24 25 25 24 23 23 24 25 25 24 24 23 22 21 20
14 13 13 13 12 11 10 9 8 7 7 8 9 8 9 10 9 11 10 6 7 9 10 11 12 11 11 12 12 13 16 17 17 18 20 21 22 22 21 20 20 21 21 21 22 23 24 23 23 24 24 25 25 25 24 23 24 24 24 25 26 26 26 25 25 26 27 27 26 25 25 24 23 23
15 14 13 13 13 13 13 12 10 9 9 9 9 8 10 11 11 12 12 10 9 11 12 12 12 12 12 13 14 15 16 16 16 17 19 20 22 24 24 22 21 21 22 23 24 24 24 24 25 25 26 26 26 26 26 26 26 26 27 27 28 28 29 29 29 29 29 28 28 26 26 25 25 25
16 16 14 13 12 12 14 13 10 10 11 11 11 10 10 12 12 13 14 12 11 11 12 14 15 14 14 15 15 15 15 16 17 18 19 19 19 21 22 23 23 23 23 24 26 27 26 25 25 26 28 28 27 27 27 28 28 29 29 30 30 30 30 31 31 31 30 29 29 28 28 28 28 28
19 18 17 15 13 11 12 12 11 10 12 12 12 11 11 11 11 12 13 12 11 12 13 15 16 16 16 17 17 15 15 16 16 18 20 20 20 20 21 23 25 25 24 24 25 27 27 26 26 27 28 28 28 28 28 29 30 30 31 31 31 31 31 31 32 32 31 31 30 29 30 31 31 32
19 18 18 17 16 13 13 12 12 13 15 15 13 12 12 11 11 11 11 12 13 14 14 16 18 18 18 20 19 18 17 18 18 18 19 20 22 22 22 23 25 26 25 24 23 24 25 27 28 29 28 28 28 29 29 30 30 30 31 31 31 31 31 31 31 31 31 31 31 31 32 33 34 35
19 18 18 17 16 16 15 14 14 14 15 15 15 14 13 13 13 12 13 14 15 15 16 18 19 19 19 22 23 21 19 20 21 20 20 20 20 21 22 24 24 24 24 24 23 23 25 26 27 27 27 28 28 29 30 31 31 31 31 31 32 32 32 32 33 32 32 33 34 35 35 36 37 37
21 20 19 18 17 17 17 16 16 16 15 14 14 14 14 14 15 15 15 15 15 16 17 19 20 21 22 24 25 24 21 20 21 22 21 20 20 21 22 22 22 21 20 21 21 22 23 24 25 26 28 29 29 29 30 30 31 31 32 32 33 34 34 34 34 34 34 35 35 36 37 37 37 36
21 20 19 18 18 18 18 18 17 16 16 14 13 13 13 12 13 15 15 16 17 17 18 19 22 24 25 25 26 25 22 20 21 21 20 20 21 22 22 21 22 21 20 20 20 21 23 25 26 28 29 30 29 29 29 29 29 30 31 31 32 33 34 33 33 32 33 34 35 35 35 35 34 32
22 22 21 20 20 19 19 19 17 16 17 16 14 14 14 14 14 15 16 18 18 19 20 21 23 23 23 24 24 24 22 21 21 20 19 20 22 22 21 21 21 20 20 21 21 22 24 26 27 28 28 28 27 27 27 28 28 28 30 32 33 33 33 33 32 32 32 33 33 32 32 31 31 32
24 23 22 21 21 21 20 20 18 18 17 16 15 15 15 15 15 16 18 19 20 21 20 20 20 19 20 23 23 22 22 21 20 19 19 20 20 19 19 20 20 20 21 22 23 22 22 24 26 27 27 26 26 26 27 28 29 30 32 33 33 33 33 33 32 31 30 31 32 32 32 32 33 34
25 24 23 21 20 21 21 20 19 18 17 15 14 13 13 15 16 17 19 20 22 21 18 18 18 17 19 22 21 19 20 19 17 17 18 18 17 16 16 19 22 23 21 20 21 22 23 25 28 29 29 29 28 28 28 29 29 29 30 31 31 31 31 30 30 30 31 31 32 32 32 33 34 36
25 24 24 22 19 18 18 17 17 17 16 15 14 14 15 16 17 19 21 22 22 19 17 18 18 17 19 21 19 18 18 17 17 17 16 15 17 16 14 14 19 22 22 22 24 27 30 31 31 30 30 29 27 26 25 25 24 25 26 27 28 28 28 29 30 31 30 30 31 32 34 36 38 39
25 24 23 21 19 18 17 17 17 17 17 16 16 17 17 18 19 20 21 21 20 19 19 19 19 19 20 20 20 20 18 18 19 18 18 18 17 16 13 13 17 22 26 28 28 30 32 31 28 28 28 25 23 23 23 23 24 25 26 27 28 28 28 29 29 29 30 32 35 37 39 40 41 40
26 24 22 21 19 19 19 18 18 18 17 16 17 18 19 19 19 19 19 20 20 20 20 19 21 23 22 21 23 22 20 20 21 21 22 21 17 15 15 18 22 27 29 29 28 27 30 30 26 27 26 23 22 23 23 24 26 26 25 24 25 26 26 28 30 32 35 37 39 40 40 39 39 39
26 25 23 22 20 20 20 20 19 19 18 18 18 19 19 19 18 17 18 19 20 21 21 21 24 25 23 23 24 23 21 21 22 20 20 18 16 18 21 23 26 28 28 27 24 22 26 28 25 25 26 24 23 23 23 24 24 22 21 23 26 29 31 33 35 36 37 37 38 39 39 39 40 41
25 24 23 22 21 21 21 21 21 19 19 19 20 20 19 19 18 17 18 19 20 20 20 21 21 21 21 22 22 21 19 18 17 16 16 17 19 22 23 24 27 27 26 25 20 18 23 26 24 25 25 23 21 21 21 22 22 23 26 30 33 34 34 34 35 35 36 37 38 38 39 41 43 45
25 24 23 22 22 23 24 24 22 20 20 21 20 20 19 19 18 18 20 20 19 18 17 18 19 19 19 19 18 17 16 15 15 16 17 21 23 22 20 22 24 24 24 24 21 20 22 22 20 21 21 20 21 24 24 25 28 31 33 33 32 32 32 33 35 36 38 38 38 38 39 41 43 46
24 24 23 22 23 24 24 23 21 20 20 20 19 19 19 18 19 20 20 16 13 11 11 10 11 12 13 13 14 15 16 17 19 19 19 22 23 19 15 15 18 22 24 25 21 18 17 17 17 20 22 22 24 26 27 28 30 31 31 30 30 31 33 34 36 37 37 38 38 39 40 42 44 46
22 22 21 21 22 22 22 21 20 19 19 18 18 18 17 17 18 18 16 13 11 11 11 10 11 13 14 16 17 17 17 18 18 19 19 21 22 19 15 15 17 20 23 23 18 16 18 20 21 24 25 24 24 25 26 28 30 29 30 31 32 33 34 35 36 36 36 38 39 41 42 43 44 46
21 21 21 20 20 20 20 20 20 18 16 16 16 16 16 16 16 15 13 13 14 15 16 16 18 19 20 19 15 14 14 15 15 18 20 23 23 22 19 17 14 11 14 17 16 18 22 23 23 23 20 15 17 24 27 29 30 30 31 33 34 34 35 34 34 35 37 39 40 42 42 42 43 44
21 21 20 20 19 19 19 19 18 16 14 14 14 14 15 15 15 15 15 16 16 17 18 19 20 20 17 14 11 12 14 15 16 17 16 15 16 15 14 14 12 10 13 18 19 19 20 21 22 24 20 12 12 21 29 31 31 32 32 33 34 34 33 33 34 36 39 40 41 41 41 41 40 42
22 21 20 19 19 18 18 18 17 16 14 13 12 13 15 15 16 16 17 18 18 18 17 17 17 15 12 11 12 15 16 17 18 15 10 10 12 12 13 14 14 15 18 20 19 19 21 22 23 25 24 19 18 22 27 30 33 34 33 32 32 32 32 33 35 38 40 40 40 41 41 40 40 41
21 20 19 18 17 16 16 15 15 14 13 11 11 12 12 13 14 15 16 17 17 17 16 14 11 9 10 12 14 14 14 14 14 13 14 17 19 18 18 17 15 18 20 21 21 22 23 25 25 24 23 21 22 23 23 26 32 35 32 30 31 32 33 34 36 39 40 39 40 41 41 41 41 42
19 18 17 16 14 14 14 12 11 11 10 9 9 9 10 11 13 14 16 16 16 16 14 10 9 9 10 11 13 14 13 12 14 18 20 21 20 19 19 18 17 19 21 22 23 24 25 26 28 27 24 22 21 19 18 22 28 32 32 33 33 34 34 35 36 38 40 40 40 42 42 41 41 41
18 17 16 14 13 13 13 11 11 11 9 7 7 8 9 11 12 13 14 14 14 12 10 8 8 9 10 11 13 13 14 16 20 21 19 17 17 17 18 18 19 20 22 23 24 25 25 28 30 29 27 24 19 16 17 22 27 30 31 32 34 35 35 35 35 37 39 40 41 41 40 40 41 41
15 16 15 13 13 13 13 13 13 12 9 6 7 9 9 10 10 11 11 12 12 11 11 10 11 12 11 11 11 11 14 18 20 19 18 17 17 17 18 20 21 21 23 24 24 24 25 27 29 29 27 25 23 22 23 24 27 30 30 30 32 35 35 33 33 35 37 39 39 39 38 39 41 41
13 14 13 13 13 14 14 14 14 11 8 8 9 10 10 10 10 11 11 12 13 14 15 15 15 14 12 10 9 11 15 17 17 18 19 20 19 18 20 22 24 24 23 23 24 24 24 24 24 25 25 26 26 27 27 25 25 29 32 31 31 33 32 32 33 35 36 37 39 40 40 41 41 40
12 13 13 13 13 13 12 13 12 10 9 10 12 12 13 13 12 13 14 15 16 18 18 18 18 16 11 9 11 13 15 16 16 17 18 19 19 20 21 23 25 26 26 24 23 23 22 22 22 24 26 27 27 28 29 27 26 29 31 31 30 30 32 35 36 35 35 36 39 40 40 40 40 38
13 13 14 14 13 13 13 13 13 12 13 14 15 15 15 15 15 16 17 18 19 20 21 20 17 13 10 10 12 13 14 15 16 17 17 18 19 22 22 22 24 26 28 27 25 23 23 23 24 24 24 24 25 28 29 28 28 29 29 29 29 30 33 34 33 33 35 36 38 39 39 38 38 37
16 15 16 15 15 15 15 14 14 14 15 15 17 18 18 17 17 19 20 22 22 22 21 17 13 9 9 11 12 11 13 15 17 17 17 18 20 22 22 22 23 26 27 26 26 26 26 26 27 26 23 21 23 26 25 26 30 30 27 27 28 29 32 33 31 32 35 35 35 38 38 37 36 36
18 18 17 17 16 16 15 15 15 14 15 16 18 20 20 19 20 20 19 18 16 12 10 8 6 7 9 9 9 11 14 17 17 16 16 19 21 21 21 22 24 24 23 23 25 28 28 29 30 27 22 21 24 26 22 21 25 27 26 26 27 29 31 32 33 33 34 33 34 35 35 35 36 37
19 19 18 17 17 16 15 16 15 14 15 17 20 22 22 22 22 20 15 11 9 7 4 2 5 7 7 8 10 13 16 17 16 16 18 20 20 20 22 22 22 21 21 22 26 28 29 31 30 24 19 20 24 26 24 18 18 21 25 26 27 29 31 32 34 34 33 33 32 31 30 33 37 39
20 20 18 16 16 16 16 15 15 15 16 18 19 21 23 23 20 17 14 10 6 2 3 5 6 6 7 10 12 13 13 14 16 19 20 19 19 21 22 20 19 21 23 24 26 28 30 30 26 18 13 11 11 13 20 24 21 19 22 26 27 29 30 33 34 33 32 31 30 28 26 29 35 40
19 17 16 13 13 14 14 14 14 15 14 10 7 8 11 12 10 10 10 6 3 2 4 6 6 5 6 9 12 13 13 15 18 19 18 18 20 21 20 19 21 24 25 25 27 27 28 28 23 15 9 7 4 5 15 26 27 22 21 25 27 28 30 32 33 32 31 30 28 27 27 29 35 39
17 15 13 11 10 10 9 9 10 10 7 3 2 2 2 3 4 7 8 5 2 2 4 5 5 4 5 8 12 14 15 16 18 16 16 19 20 19 19 21 24 25 25 26 26 26 26 26 22 16 10 6 5 5 10 19 25 26 24 23 25 27 30 31 31 31 31 30 28 29 29 29 33 36
16 13 10 9 8 8 6 4 3 3 3 2 1 2 3 2 3 7 7 3 1 4 6 6 6 8 10 10 11 14 16 16 15 15 17 19 19 18 21 24 25 25 25 24 24 25 26 25 22 20 17 13 11 13 14 17 22 25 25 23 23 27 30 30 30 31 31 30 31 32 31 29 30 31
15 12 10 8 8 7 5 4 4 3 2 0 2 1 2 2 1 4 4 2 2 4 6 6 7 9 9 9 10 13 14 13 13 15 18 18 17 20 23 24 24 24 22 22 23 24 24 24 24 24 25 24 21 20 20 19 20 23 24 24 25 27 28 28 29 30 30 30 31 31 29 28 30 29
15 13 10 8 7 7 7 5 4 2 1 1 1 1 3 4 2 1 1 1 4 5 5 5 6 7 7 8 11 12 11 12 13 16 17 18 20 23 24 23 23 23 20 20 23 24 23 25 26 26 27 28 24 19 15 12 14 19 23 26 28 29 27 26 27 29 29 30 30 28 26 25 26 27
14 11 9 8 8 8 6 5 4 4 4 4 3 3 5 5 3 3 1 3 5 4 3 5 7 8 8 9 9 8 9 12 14 15 17 20 22 23 22 22 22 22 20 22 24 24 25 28 28 28 29 28 20 11 8 8 11 16 22 26 29 30 29 27 28 28 27 28 29 28 26 24 19 16
13 11 10 11 10 8 6 5 6 7 7 7 6 6 5 4 5 3 1 2 3 3 5 7 7 7 7 7 6 7 10 12 14 16 19 21 21 21 22 22 22 22 24 25 25 26 27 29 30 30 30 23 14 8 10 13 14 17 20 24 28 30 30 29 30 29 27 27 29 29 28 24 19 14
15 13 13 13 11 8 6 6 7 8 8 8 8 7 6 6 5 3 3 4 5 5 6 7 6 5 4 5 6 9 11 12 15 18 19 19 19 20 21 21 21 23 25 26 26 27 29 30 32 31 24 15 10 10 13 15 15 16 20 23 26 29 30 30 31 32 30 29 30 31 30 26 22 20
14 15 14 13 11 8 7 7 9 10 11 11 10 8 7 8 6 4 3 4 6 6 7 7 6 4 3 5 7 9 11 13 16 17 16 16 18 19 20 20 21 23 25 26 27 28 28 29 31 28 18 10 9 12 14 14 13 15 20 24 25 27 29 29 30 31 30 30 32 33 32 29 26 24
Wind_Direction
197 203 211 221 230 239 242 239 236 220 205 194 190 203 200 188 186 189 268 278 260 297 321 332 342 335 305 261 251 251 263 284 287 282 286 291 288 285 283 280 278 278 277 275 276 279 282 284 285 286 286 285 285 283 280 276 274 273 274 277 281 284 285 285 285 285 286 288 287 284 282 282 284 286
205 206 211 215 222 231 233 240 251 228 218 226 229 228 224 219 212 199 198 250 261 277 307 315 313 325 325 298 271 260 268 286 291 289 292 295 296 297 296 293 288 285 282 281 280 279 278 280 283 285 285 284 282 281 280 277 274 274 274 276 279 282 284 284 282 283 286 286 284 280 279 278 280 284
213 215 222 222 220 222 219 219 229 226 227 231 228 225 225 226 229 222 208 216 258 260 280 295 299 304 307 307 296 278 274 282 286 284 283 285 290 293 294 295 295 292 291 290 289 287 285 284 284 285 283 280 276 276 277 276 275 275 277 279 280 282 283 282 282 285 290 290 286 279 275 275 279 283
217 219 223 221 218 221 222 221 223 231 236 223 209 211 217 217 227 235 227 219 246 259 270 282 288 292 295 297 296 288 285 287 287 283 279 276 276 279 283 286 289 292 294 294 292 291 290 290 289 287 285 282 278 274 272 273 274 276 279 281 283 283 283 282 284 287 290 292 289 282 276 274 278 284
220 224 226 223 221 223 226 223 218 226 234 224 217 222 223 222 228 235 232 231 248 264 271 275 280 286 286 281 278 279 281 285 287 288 288 282 274 272 276 279 279 282 288 291 290 288 289 291 291 288 286 285 282 277 271 269 271 274 278 282 284 285 284 283 284 287 289 291 290 284 277 275 279 285
220 226 228 223 222 223 222 219 215 223 231 228 230 233 234 239 242 239 239 241 247 260 271 277 282 287 286 281 279 277 277 282 287 288 289 288 280 274 277 281 281 280 280 283 284 282 283 286 288 286 285 284 283 281 277 272 271 273 277 280 283 283 283 283 284 286 287 289 288 284 280 279 281 285
223 227 226 224 226 223 217 216 218 227 229 226 229 237 241 242 238 233 234 239 245 255 266 274 278 284 288 287 286 285 284 288 292 290 286 283 280 280 282 285 286 285 283 282 281 278 278 281 283 283 282 282 281 281 282 281 280 280 280 281 282 281 280 282 283 285 286 287 286 284 282 283 284 286
222 224 225 230 234 230 221 219 225 230 228 226 231 238 237 226 218 219 227 241 254 257 260 267 273 280 286 287 286 287 288 290 293 294 290 284 279 280 283 285 285 284 282 282 280 277 277 281 283 282 281 280 278 278 279 281 282 283 285 285 283 280 279 279 281 283 285 285 284 283 283 284 285 286
222 226 230 235 236 232 227 224 226 229 225 226 233 235 231 226 228 238 246 252 256 256 259 269 278 283 285 284 286 289 288 288 290 292 290 284 279 278 282 286 286 284 280 278 277 277 279 282 282 280 278 278 279 279 279 279 279 280 282 284 284 282 280 280 280 282 284 284 284 283 283 284 286 286
225 229 233 235 232 231 232 229 228 228 222 222 230 230 227 230 237 242 245 247 252 256 263 272 279 282 282 281 285 289 289 285 286 288 288 283 277 276 282 288 291 289 280 275 277 279 281 283 281 278 278 279 281 282 282 282 281 279 280 282 284 283 282 281 281 282 283 284 283 283 284 285 287 288
220 222 225 227 228 229 233 232 228 223 216 213 217 221 224 233 239 241 243 247 252 254 260 267 271 276 280 281 283 287 289 285 282 284 282 279 280 283 284 287 291 291 283 278 282 284 284 284 283 281 281 282 283 283 282 283 283 281 281 281 282 282 282 281 281 281 282 283 283 283 284 286 288 287
220 219 221 224 227 228 229 228 226 223 221 222 227 232 238 245 249 251 250 250 250 250 253 259 265 271 278 280 281 284 286 282 280 282 279 276 282 288 288 286 289 289 286 286 290 291 291 289 286 285 285 285 286 286 284 284 282 281 280 280 281 281 281 281 281 281 281 282 284 284 284 284 285 285
225 225 225 225 228 229 229 230 233 234 235 237 240 243 247 251 254 255 252 249 248 250 252 259 267 273 276 278 280 283 282 278 279 286 287 281 281 285 286 286 287 288 292 295 296 296 296 292 289 289 289 289 289 288 285 283 282 282 282 283 283 283 282 282 282 281 280 282 285 286 285 285 286 288
228 230 229 228 227 226 227 231 236 240 242 240 238 240 247 250 249 248 248 249 251 254 258 265 271 272 272 276 280 282 283 282 285 292 291 287 289 292 291 290 291 293 298 301 299 297 295 291 288 288 289 289 289 287 283 283 284 285 286 286 287 286 285 285 284 282 280 282 286 289 289 289 289 289
225 227 228 227 223 222 225 231 236 237 235 229 228 236 244 248 248 247 247 250 255 259 262 266 267 265 268 276 282 282 285 288 290 290 285 286 295 298 294 292 294 297 301 303 298 295 293 291 288 288 289 291 292 291 290 291 293 293 293 292 290 289 287 286 284 283 283 286 291 293 293 292 290 288
224 224 224 224 224 227 231 232 229 225 225 229 237 245 248 250 253 254 254 257 261 264 264 264 266 266 269 277 281 282 286 288 287 284 281 285 290 287 283 284 288 296 302 301 295 293 294 294 291 291 294 298 300 300 299 300 300 300 300 297 294 290 288 286 286 287 290 293 294 294 293 291 289 287
226 224 222 224 228 232 234 231 225 223 228 238 247 252 253 255 259 262 265 268 270 270 270 269 272 275 275 277 283 289 289 284 282 282 284 286 283 275 278 283 287 297 302 298 291 290 295 297 293 290 295 300 301 300 300 301 302 302 302 300 296 294 292 292 292 293 294 294 294 293 292 290 288 287
225 225 226 227 228 229 231 230 228 229 236 247 257 259 257 259 263 266 269 272 273 276 277 276 278 282 282 282 289 297 294 284 279 280 281 281 279 281 287 289 291 297 300 294 286 284 291 296 291 288 293 298 296 296 298 299 301 301 301 300 299 298 297 296 296 296 295 295 294 292 290 287 285 284
224 225 227 226 224 225 228 230 233 238 247 256 262 262 261 264 268 269 272 276 280 284 287 286 286 289 288 287 290 295 292 283 276 275 277 283 287 289 290 290 291 294 297 295 283 273 284 293 289 287 296 301 299 299 299 299 301 301 300 299 299 299 299 298 297 296 296 297 297 294 291 288 286 285
224 225 224 222 224 229 234 236 241 247 255 259 259 257 260 264 267 272 279 286 291 295 294 292 291 290 287 285 288 292 290 283 281 285 288 291 291 287 284 287 289 291 296 297 287 274 281 293 295 298 307 312 309 306 304 303 303 302 300 301 301 301 302 301 300 299 299 300 300 298 295 292 289 287
218 219 222 225 230 236 240 244 248 252 255 255 254 254 257 262 268 277 288 295 297 294 289 287 289 290 291 292 296 298 294 290 293 294 293 294 293 286 280 282 284 287 294 299 296 289 294 306 314 315 317 316 312 308 307 306 305 303 304 305 305 304 303 303 303 303 302 301 300 298 296 293 291 289
214 218 225 231 235 239 243 247 250 252 253 252 252 253 256 264 274 284 290 286 275 269 271 277 285 293 303 306 304 300 295 295 298 294 292 296 292 280 273 276 281 289 295 298 302 309 315 320 323 323 319 314 309 308 308 308 307 307 308 307 306 305 305 305 306 305 303 302 301 300 299 297 294 291
220 225 229 229 231 237 241 246 250 252 251 251 252 253 257 267 274 278 276 273 275 279 283 288 296 303 309 310 308 308 305 302 302 299 300 300 291 278 275 283 290 295 296 300 308 316 316 317 320 321 318 311 308 309 309 307 306 306 306 305 304 306 307 305 304 304 303 302 302 301 301 300 298 294
222 227 229 229 231 236 240 245 250 250 247 246 249 252 255 259 263 266 267 272 283 292 297 302 307 310 312 313 313 313 310 309 309 309 311 311 302 291 290 297 299 290 291 304 313 312 308 309 311 310 305 294 295 304 304 303 303 303 304 303 303 305 306 304 303 304 304 303 303 302 302 302 299 294
222 227 231 232 233 235 239 245 246 244 242 243 248 252 253 256 261 268 274 279 289 299 304 308 309 309 313 317 314 310 311 315 316 314 317 326 326 321 314 310 300 290 296 312 319 310 302 301 303 302 299 291 287 292 298 300 300 301 302 302 301 302 303 303 305 306 306 305 304 303 302 302 300 295
226 231 233 233 233 234 237 239 237 236 237 240 246 251 256 264 271 278 285 291 298 303 305 304 304 312 324 325 322 319 318 319 316 312 313 318 320 319 317 314 307 300 307 319 320 310 301 298 296 294 291 290 291 293 295 296 298 301 302 301 299 300 302 305 306 307 308 306 305 304 303 302 300 297
223 227 226 225 228 231 232 230 227 226 227 233 244 257 266 273 280 286 292 296 299 299 300 299 301 311 317 317 320 324 323 318 315 315 316 316 317 317 316 315 312 308 311 315 314 309 301 295 294 291 287 286 290 293 292 292 296 300 301 300 300 301 303 305 306 307 308 307 306 305 304 302 300 298
216 217 215 217 224 229 228 228 226 220 220 231 250 263 270 274 281 286 289 292 294 290 285 283 285 290 299 307 313 315 313 311 314 318 319 318 319 317 314 312 312 311 311 310 309 308 303 296 293 292 288 284 283 286 288 290 293 297 299 300 302 302 304 307 308 308 308 307 306 305 303 302 301 300
208 209 210 217 225 227 227 229 226 219 220 237 255 262 265 267 272 277 278 280 278 267 258 260 265 272 290 309 313 308 305 307 314 319 320 319 320 318 315 314 312 311 312 311 311 311 308 302 297 293 288 285 284 284 285 288 291 296 299 300 300 302 305 309 309 307 306 305 304 304 303 301 301 299
196 203 211 219 222 224 227 228 222 217 223 243 253 256 256 255 256 256 256 258 258 253 252 256 259 268 289 309 310 307 311 315 319 321 318 318 319 320 319 316 312 312 314 316 317 315 310 305 300 292 288 289 291 289 287 287 290 295 300 302 301 302 307 310 309 306 306 306 306 306 304 303 301 299
199 202 208 215 219 219 219 217 215 219 233 247 253 254 251 249 249 249 251 255 257 257 260 264 266 270 287 306 310 315 320 321 321 320 318 317 318 319 318 313 308 310 315 319 322 321 316 310 306 298 292 291 293 295 295 293 291 294 300 303 302 302 307 310 308 307 309 310 309 308 306 305 303 300
207 206 205 207 210 209 207 211 218 229 242 251 256 254 249 248 250 252 256 260 263 265 269 273 270 271 286 304 312 321 325 321 318 318 317 316 316 317 314 308 304 307 312 317 324 329 326 320 317 311 302 295 295 300 301 297 294 294 297 302 304 304 305 307 307 308 313 314 311 308 307 305 304 304
204 201 201 201 200 201 207 217 228 239 249 255 256 252 249 250 253 254 259 265 271 274 273 267 262 270 294 308 318 328 326 317 313 314 316 318 318 315 311 306 304 305 307 313 325 330 326 324 324 320 311 303 302 304 298 292 293 297 300 305 307 305 306 308 309 312 316 316 311 308 308 307 306 307
203 198 197 198 201 206 214 225 235 244 250 253 254 255 256 255 254 257 263 269 269 262 250 247 266 297 310 319 334 333 318 311 314 320 322 321 317 315 311 307 307 310 311 317 326 327 323 323 325 321 313 310 313 314 306 290 288 297 305 308 308 308 310 314 316 317 318 316 311 308 308 309 309 310
199 197 196 199 206 214 221 229 237 243 249 254 260 263 263 260 257 254 248 235 217 202 198 295 330 329 323 328 334 325 313 313 322 326 321 317 316 318 316 311 311 317 322 322 323 323 321 322 321 315 311 317 322 323 323 313 298 300 307 311 313 314 315 318 320 319 317 317 314 310 310 311 312 314
197 199 201 205 215 223 227 231 237 246 255 261 265 262 255 252 249 238 220 202 189 169 24 5 349 333 326 330 333 328 321 323 325 318 314 317 321 321 319 319 322 325 324 321 320 321 322 320 315 306 305 319 325 321 321 322 318 311 309 312 317 320 320 321 322 320 318 318 317 314 314 313 311 313
194 197 204 212 219 221 221 224 232 243 252 257 259 246 234 228 221 207 189 168 129 66 24 5 348 333 332 336 334 329 324 320 315 312 316 324 326 323 322 326 327 324 320 319 320 323 323 320 313 305 302 314 317 301 311 318 322 323 321 319 321 324 326 325 323 321 321 321 319 319 319 312 308 311
194 197 206 210 209 212 224 239 246 249 245 216 115 93 121 146 164 166 159 146 121 38 1 350 336 321 323 327 322 316 313 311 311 318 328 328 325 326 328 327 323 320 318 319 323 327 327 322 316 311 308 303 294 295 308 314 318 325 333 332 328 330 334 331 326 323 323 324 325 325 321 311 306 312
198 199 203 205 214 233 252 263 254 231 203 191 310 352 20 45 149 164 167 184 300 346 342 327 309 307 312 314 309 304 305 311 320 330 332 328 327 330 329 322 318 317 316 319 324 327 328 327 325 321 315 306 300 305 307 303 307 320 334 341 339 339 340 336 330 326 326 330 332 328 323 317 315 318
200 205 210 217 232 240 225 181 159 159 158 330 323 330 9 9 184 181 191 245 331 355 353 343 331 322 314 306 300 301 308 321 333 333 330 329 329 327 323 318 316 317 317 319 322 324 326 331 333 328 320 314 311 313 316 313 314 325 336 343 344 346 345 341 336 332 331 334 336 331 327 327 326 327
208 217 223 225 223 211 197 190 188 189 209 316 0 14 351 337 314 218 189 345 350 357 1 359 346 332 317 306 305 309 322 336 337 331 329 326 321 319 319 319 320 322 322 320 320 322 328 332 332 330 327 321 316 318 326 325 322 329 336 340 344 349 352 351 346 341 338 340 340 336 332 330 328 329
217 219 211 202 198 198 207 227 233 229 248 267 289 324 325 307 266 234 265 337 339 337 334 327 316 306 304 310 316 323 331 334 332 327 322 317 314 317 321 323 324 326 326 323 322 324 330 334 333 334 333 328 322 324 332 321 316 327 336 340 343 348 353 355 353 351 349 348 348 345 340 335 331 331
213 209 201 199 203 210 224 240 238 241 255 261 268 288 289 242 216 221 276 320 315 302 306 306 291 279 292 312 321 322 326 330 327 320 315 315 318 322 324 326 329 331 329 327 327 329 332 335 337 337 335 332 331 338 333 323 325 337 342 341 343 347 351 354 355 356 357 356 355 355 352 346 341 337
211 211 205 201 204 212 224 236 241 244 245 243 249 260 248 222 223 256 296 303 303 302 304 298 275 261 290 307 304 312 323 327 322 317 317 322 326 326 327 330 333 333 331 330 330 330 333 336 339 341 341 344 351 352 341 334 339 350 350 346 346 349 351 352 354 355 356 357 358 359 359 356 353 349
218 212 206 202 206 215 227 241 248 244 239 239 245 246 235 228 240 262 282 299 307 306 297 289 274 259 272 289 303 319 324 320 320 322 326 328 328 328 331 334 333 332 333 332 329 328 331 336 339 343 350 2 4 359 354 350 353 0 358 352 351 352 352 353 354 352 351 353 357 360 2 2 2 3